Date String (YYYY-MM-DD hh:mm:ss) UTC,Instrument flags,absolute air pressure of the measurement (hPa),sample flow rate (lpm),inlet stack bypass flow (lpm),air temperature of the measurement (°C),ambient temperature measured by the external sensor (°C),aerosol sample conditioner tube jacket temperature (°C),OPC LED temperature (°C),internal box temperature (°C),relative humidity of the measurement (%),span deviation,mass concentration of particles derived from Lorenz-Mie calculation of OPC scattering (μg/m³),mass concentration of particles derived from Lorenz-Mie calculation of OPC scattering (μg/m³),mass concentration of particles derived from Lorenz-Mie calculation of OPC scattering (μg/m³)
DateTimeUTC,F1_M11,P_M11,Q1_M11,Q2_M11,T1_M11,T2_M11,T3_M11,T4_M11,T5_M11,U1_M11,ZSPAN_M11,X2_M11,X0_M11,X1_M11
2023-12-03 00:00:00,SystemResetWarning,0820.7,5.00,000.00,018.8,017.8,000.0,027.3,020.0,10.0,0000.0,0000.63,0001.27,0000.42
2023-12-03 00:01:00,SystemResetWarning,0820.6,5.00,000.00,018.8,017.8,000.0,027.3,020.0,10.2,0000.0,0000.65,0001.41,0000.42
2023-12-03 00:02:00,SystemResetWarning,0820.6,5.00,000.00,018.8,017.7,000.0,027.3,020.0,10.1,0000.0,0000.64,0001.38,0000.41
2023-12-03 00:03:00,SystemResetWarning,0820.5,5.00,000.00,018.8,017.7,000.0,027.3,020.0,10.0,0000.0,0000.62,0001.26,0000.41
2023-12-03 00:04:00,SystemResetWarning,0820.5,5.00,000.00,018.8,017.7,000.0,027.3,020.0,9.9,0000.0,0000.61,0001.21,0000.41
2023-12-03 00:05:00,SystemResetWarning,0820.6,5.00,000.00,018.8,017.7,000.0,027.3,020.0,9.8,0000.0,0000.59,0001.20,0000.41
2023-12-03 00:06:00,SystemResetWarning,0820.6,5.01,000.00,018.8,017.7,000.0,027.3,020.0,10.0,0000.0,0000.60,0001.18,0000.43
2023-12-03 00:07:00,SystemResetWarning,0820.6,5.00,000.00,018.8,017.8,000.0,027.3,020.0,10.0,0000.0,0000.61,0001.18,0000.44
2023-12-03 00:08:00,SystemResetWarning,0820.6,4.99,000.00,018.8,017.8,000.0,027.3,020.0,9.9,0000.0,0000.64,0001.23,0000.44
2023-12-03 00:09:00,SystemResetWarning,0820.6,5.00,000.00,018.8,017.8,000.0,027.3,020.0,9.9,0000.0,0000.64,0001.26,0000.43
2023-12-03 00:10:00,SystemResetWarning,0820.6,5.00,000.00,018.8,017.8,000.0,027.3,020.0,10.0,0000.0,0000.62,0001.23,0000.42
2023-12-03 00:11:00,SystemResetWarning,0820.6,5.00,000.00,018.8,017.8,000.0,027.3,020.0,9.8,0000.0,0000.65,0001.34,0000.43
2023-12-03 00:12:00,SystemResetWarning,0820.8,5.00,000.00,018.8,017.8,000.0,027.3,020.0,9.9,0000.0,0000.67,0001.51,0000.43
2023-12-03 00:13:00,SystemResetWarning,0820.9,5.00,000.00,018.8,017.8,000.0,027.3,020.0,10.0,0000.0,0000.71,0002.28,0000.44
2023-12-03 00:14:00,SystemResetWarning,0820.7,5.01,000.00,018.8,017.8,000.0,027.3,020.0,10.0,0000.0,0000.73,0002.35,0000.44
2023-12-03 00:15:00,SystemResetWarning,0820.8,5.01,000.00,018.7,017.8,000.0,027.3,020.0,10.1,0000.0,0000.73,0002.34,0000.44
2023-12-03 00:16:00,SystemResetWarning,0820.6,5.00,000.00,018.8,017.8,000.0,027.3,020.0,10.0,0000.0,0000.73,0002.32,0000.44
2023-12-03 00:17:00,SystemResetWarning,0820.3,5.00,000.00,018.8,017.8,000.0,027.3,020.0,10.1,0000.0,0000.72,0002.31,0000.43
2023-12-03 00:18:00,SystemResetWarning,0820.7,5.00,000.00,018.7,017.8,000.0,027.2,020.0,9.9,0000.0,0000.74,0002.39,0000.42
2023-12-03 00:19:00,SystemResetWarning,0820.9,5.00,000.00,018.8,017.8,000.0,027.2,020.0,9.9,0000.0,0000.74,0002.39,0000.43
2023-12-03 00:20:00,SystemResetWarning,0820.8,4.99,000.00,018.8,017.9,000.0,027.3,020.0,10.0,0000.0,0000.76,0002.43,0000.43
2023-12-03 00:21:00,SystemResetWarning,0820.9,5.00,000.00,018.8,017.9,000.0,027.2,020.0,9.9,0000.0,0000.76,0002.43,0000.44
2023-12-03 00:22:00,SystemResetWarning,0820.5,5.00,000.00,018.8,017.9,000.0,027.2,020.0,9.9,0000.0,0000.74,0003.41,0000.43
2023-12-03 00:23:00,SystemResetWarning,0820.3,4.99,000.00,018.8,017.9,000.0,027.2,020.0,10.0,0000.0,0000.72,0003.24,0000.44
2023-12-03 00:24:00,SystemResetWarning,0820.3,5.00,000.00,018.8,017.8,000.0,027.3,020.0,10.0,0000.0,0000.70,0002.60,0000.42
2023-12-03 00:25:00,SystemResetWarning,0820.3,5.00,000.00,018.8,017.8,000.0,027.3,020.0,9.8,0000.0,0000.69,0002.57,0000.42
2023-12-03 00:26:00,SystemResetWarning,0820.5,5.00,000.00,018.8,017.8,000.0,027.2,020.0,9.9,0000.0,0000.69,0002.54,0000.42
2023-12-03 00:27:00,SystemResetWarning,0820.8,5.00,000.00,018.8,017.8,000.0,027.2,020.0,9.9,0000.0,0000.69,0002.53,0000.43
2023-12-03 00:28:00,SystemResetWarning,0820.9,5.01,000.00,018.8,017.8,000.0,027.2,020.0,10.0,0000.0,0000.69,0002.51,0000.43
2023-12-03 00:29:00,SystemResetWarning,0820.5,5.00,000.00,018.8,017.8,000.0,027.3,020.0,10.1,0000.0,0000.68,0002.47,0000.43
2023-12-03 00:30:00,SystemResetWarning,0820.6,4.99,000.00,018.8,017.8,000.0,027.3,020.0,10.2,0000.0,0000.73,0002.57,0000.43
2023-12-03 00:31:00,SystemResetWarning,0820.7,5.00,000.00,018.8,017.9,000.0,027.3,020.0,10.2,0000.0,0000.70,0002.50,0000.43
2023-12-03 00:32:00,SystemResetWarning,0820.8,5.00,000.00,018.8,017.9,000.0,027.3,020.0,10.1,0000.0,0000.71,0002.51,0000.43
2023-12-03 00:33:00,SystemResetWarning,0820.5,5.00,000.00,018.8,017.9,000.0,027.2,020.0,10.1,0000.0,0000.70,0001.60,0000.43
2023-12-03 00:34:00,SystemResetWarning,0820.9,5.00,000.00,018.8,017.9,000.0,027.2,020.0,10.1,0000.0,0000.70,0001.26,0000.43
2023-12-03 00:35:00,SystemResetWarning,0820.4,5.00,000.00,018.8,017.9,000.0,027.2,020.0,10.1,0000.0,0000.68,0001.15,0000.43
2023-12-03 00:36:00,SystemResetWarning,0820.8,5.00,000.00,018.8,017.9,000.0,027.2,020.0,10.1,0000.0,0000.72,0001.44,0000.44
2023-12-03 00:37:00,SystemResetWarning,0820.8,5.00,000.00,018.8,017.9,000.0,027.2,020.0,10.1,0000.0,0000.73,0002.43,0000.44
2023-12-03 00:38:00,SystemResetWarning,0820.7,5.00,000.00,018.8,017.9,000.0,027.2,020.0,10.1,0000.0,0000.72,0002.39,0000.44
2023-12-03 00:39:00,SystemResetWarning,0820.5,5.00,000.00,018.8,017.9,000.0,027.2,020.0,10.0,0000.0,0000.78,0002.67,0000.44
2023-12-03 00:40:00,SystemResetWarning,0820.5,5.00,000.00,018.8,017.9,000.0,027.2,020.0,9.9,0000.0,0000.79,0004.19,0000.44
2023-12-03 00:41:00,SystemResetWarning,0820.2,5.00,000.00,018.8,017.9,000.0,027.2,020.0,10.0,0000.0,0000.78,0004.26,0000.43
2023-12-03 00:42:00,SystemResetWarning,0820.7,5.00,000.00,018.8,017.9,000.0,027.2,020.0,9.9,0000.0,0000.78,0004.35,0000.44
2023-12-03 00:43:00,SystemResetWarning,0820.7,5.00,000.00,018.8,017.9,000.0,027.2,020.0,10.0,0000.0,0000.78,0004.37,0000.44
2023-12-03 00:44:00,SystemResetWarning,0820.2,5.00,000.00,018.8,017.9,000.0,027.2,020.0,10.1,0000.0,0000.81,0005.66,0000.44
2023-12-03 00:45:00,SystemResetWarning,0820.2,5.00,000.00,018.8,017.9,000.0,027.2,020.0,9.4,0000.0,0000.84,0006.09,0000.45
2023-12-03 00:46:00,SystemResetWarning,0820.2,5.00,000.00,018.8,017.9,000.0,027.2,020.0,9.3,0000.0,0000.87,0006.49,0000.46
2023-12-03 00:47:00,SystemResetWarning,0820.2,5.00,000.00,018.8,017.9,000.0,027.2,020.0,9.7,0000.0,0000.85,0006.54,0000.46
2023-12-03 00:48:00,SystemResetWarning,0820.1,5.00,000.00,018.8,017.9,000.0,027.2,020.0,9.9,0000.0,0000.85,0005.74,0000.47
2023-12-03 00:49:00,SystemResetWarning,0820.3,5.00,000.00,018.8,018.0,000.0,027.2,020.0,9.6,0000.0,0000.83,0005.57,0000.47
2023-12-03 00:50:00,SystemResetWarning,0820.1,5.00,000.00,018.8,017.9,000.0,027.2,020.0,9.5,0000.0,0000.77,0005.32,0000.46
2023-12-03 00:51:00,SystemResetWarning,0820.1,5.00,000.00,018.8,017.9,000.0,027.2,020.0,9.7,0000.0,0000.75,0003.96,0000.46
2023-12-03 00:52:00,SystemResetWarning,0820.1,5.00,000.00,018.8,017.9,000.0,027.2,020.0,9.7,0000.0,0000.70,0003.57,0000.45
2023-12-03 00:53:00,SystemResetWarning,0820.1,5.00,000.00,018.8,017.9,000.0,027.2,020.0,9.8,0000.0,0000.69,0003.55,0000.45
2023-12-03 00:54:00,SystemResetWarning,0820.2,5.00,000.00,018.8,017.9,000.0,027.2,020.0,9.9,0000.0,0000.70,0003.54,0000.44
2023-12-03 00:55:00,SystemResetWarning,0820.3,5.00,000.00,018.8,018.0,000.0,027.2,020.0,10.1,0000.0,0000.68,0002.36,0000.43
2023-12-03 00:56:00,SystemResetWarning,0820.2,5.00,000.00,018.8,018.0,000.0,027.2,020.0,9.7,0000.0,0000.65,0001.93,0000.41
2023-12-03 00:57:00,SystemResetWarning,0820.2,5.00,000.00,018.8,018.0,000.0,027.2,020.0,9.6,0000.0,0000.63,0001.53,0000.40
2023-12-03 00:58:00,SystemResetWarning,0820.1,5.01,000.00,018.8,017.9,000.0,027.2,020.0,9.8,0000.0,0000.63,0001.43,0000.39
2023-12-03 00:59:00,SystemResetWarning,0820.1,5.00,000.00,018.8,017.8,000.0,027.2,020.0,10.0,0000.0,0000.60,0001.20,0000.38
